Paynesville, MN

12:10 AM CST on January 17, 2017 (GMT -0600)
Paynesville

Weather History for KPEX - October, 2013

Change the Weather History Date:

Sunday, October 27, 2013

  Actual Average (KLJF) Record (KLJF)
Temperature  
Mean Temperature 42 °F -  
Max Temperature 56 °F 57 °F 78 °F (1989)
Min Temperature 29 °F 35 °F 11 °F (1976)
Degree Days  
Heating Degree Days 22    
Moisture  
Dew Point 28 °F    
Average Humidity 65    
Maximum Humidity 88    
Minimum Humidity 39    
Precipitation  
Precipitation 0.00 in - - ()
Sea Level Pressure  
Sea Level Pressure 29.92 in    
Wind  
Wind Speed 8 mph (WNW)    
Max Wind Speed 13 mph    
Max Gust Speed 22 mph    
Visibility 10 miles    
Events      
Averages and records for this station are not official NWS values.
T = Trace of Precipitation, MM = Missing Value Source: NWS Daily Summary

Daily Weather History Graph

Daily Weather History Graph

Search for Another Location

Airport or City:

Trip Planner

Search our weather history database for the weather conditions in past years. The results will help you decide how hot, cold, wet, or windy it might be!

Date:

Astronomy

Oct. 27, 2013 Rise Set
Actual Time 7:51 AM CDT 6:13 PM CDT
Civil Twilight 7:21 AM CDT 6:43 PM CDT
Nautical Twilight 6:46 AM CDT 7:18 PM CDT
Astronomical Twilight 6:12 AM CDT 7:52 PM CDT
Moon 12:30 AM CDT (10/27) 2:40 PM CDT (10/27)
Length of Visible Light 11h 22m
Length of Day
10h 21m
Last Quarter, 43% of the Moon is Illuminated
Oct 27
Last Quarter
Nov 3
New
Nov 9
First Quarter
Nov 17
Full
Nov 25
Last Quarter

Hourly Weather History & Observations

Time (CDT) Temp. Windchill Dew Point Humidity Pressure Visibility Wind Dir Wind Speed Gust Speed Precip Events Conditions
12:12 AM 29.3 °F 23.2 °F 26.2 °F 88% 30.01 in 10.0 mi South 5.8 mph - N/A   Clear
12:33 AM 31.3 °F 25.6 °F 27.0 °F 84% 30.00 in 10.0 mi South 5.8 mph - N/A   Clear
12:53 AM 32.0 °F 24.2 °F 26.4 °F 80% 29.99 in 10.0 mi SSW 9.2 mph - N/A   Clear
1:13 AM 32.2 °F 25.8 °F 26.6 °F 80% 29.97 in 10.0 mi South 6.9 mph - N/A   Clear
1:33 AM 32.0 °F 26.4 °F 26.4 °F 80% 29.97 in 10.0 mi SSW 5.8 mph - N/A   Clear
1:52 AM 32.0 °F 26.4 °F 26.2 °F 79% 29.97 in 10.0 mi South 5.8 mph - N/A   Clear
2:13 AM 31.6 °F 25.1 °F 26.4 °F 81% 29.96 in 10.0 mi South 6.9 mph - N/A   Clear
2:33 AM 31.6 °F 26.0 °F 26.4 °F 81% 29.95 in 10.0 mi South 5.8 mph - N/A   Clear
2:53 AM 31.6 °F 25.1 °F 26.2 °F 80% 29.94 in 10.0 mi South 6.9 mph - N/A   Clear
3:13 AM 32.0 °F 24.8 °F 25.9 °F 78% 29.93 in 10.0 mi South 8.1 mph - N/A   Clear
3:32 AM 31.6 °F 24.4 °F 26.1 °F 80% 29.93 in 10.0 mi South 8.1 mph - N/A   Clear
3:52 AM 31.1 °F 23.7 °F 25.7 °F 80% 29.91 in 10.0 mi South 8.1 mph - N/A   Clear
4:13 AM 30.9 °F 24.3 °F 25.7 °F 81% 29.90 in 10.0 mi South 6.9 mph - N/A   Clear
4:33 AM 31.1 °F 24.5 °F 25.5 °F 80% 29.90 in 10.0 mi South 6.9 mph - N/A   Clear
4:53 AM 31.1 °F 23.7 °F 25.3 °F 79% 29.89 in 10.0 mi South 8.1 mph - N/A   Clear
5:13 AM 31.6 °F 25.1 °F 25.3 °F 78% 29.88 in 10.0 mi South 6.9 mph - N/A   Clear
5:33 AM 31.8 °F 23.3 °F 25.3 °F 77% 29.87 in 10.0 mi South 10.4 mph - N/A   Clear
5:52 AM 31.8 °F 24.6 °F 25.3 °F 77% 29.87 in 10.0 mi South 8.1 mph - N/A   Clear
6:13 AM 32.0 °F 24.2 °F 25.5 °F 77% 29.85 in 10.0 mi South 9.2 mph - N/A   Clear
6:33 AM 31.8 °F 24.6 °F 25.5 °F 78% 29.85 in 10.0 mi South 8.1 mph - N/A   Clear
6:52 AM 31.5 °F 24.2 °F 25.7 °F 79% 29.84 in 10.0 mi South 8.1 mph - N/A   Clear
7:13 AM 31.5 °F 24.9 °F 25.7 °F 79% 29.82 in 10.0 mi South 6.9 mph - N/A   Clear
7:33 AM 32.0 °F 24.8 °F 26.1 °F 79% 29.81 in 10.0 mi South 8.1 mph - N/A   Clear
7:53 AM 32.0 °F 25.6 °F 26.4 °F 80% 29.80 in 10.0 mi SSW 6.9 mph - N/A   Clear
8:13 AM 31.8 °F - 26.6 °F 81% 29.81 in 10.0 mi Calm Calm - N/A   Clear
8:32 AM 32.0 °F 27.5 °F 26.8 °F 81% 29.80 in 10.0 mi SSW 4.6 mph - N/A   Clear
8:53 AM 33.1 °F 28.7 °F 27.3 °F 79% 29.81 in 10.0 mi SW 4.6 mph - N/A   Clear
9:13 AM 34.7 °F 27.5 °F 27.7 °F 76% 29.81 in 10.0 mi SSW 9.2 mph - N/A   Clear
9:32 AM 36.1 °F 29.9 °F 28.4 °F 73% 29.81 in 10.0 mi SSW 8.1 mph - N/A   Clear
9:53 AM 38.5 °F 32.7 °F 29.3 °F 70% 29.81 in 10.0 mi SW 8.1 mph - N/A   Clear
10:13 AM 40.6 °F 36.0 °F 29.7 °F 65% 29.82 in 10.0 mi SSW 6.9 mph - N/A   Clear
10:33 AM 43.2 °F 38.4 °F 28.9 °F 57% 29.81 in 10.0 mi SW 8.1 mph - N/A   Clear
10:53 AM 45.5 °F 40.8 °F 28.6 °F 52% 29.82 in 10.0 mi WSW 9.2 mph - N/A   Clear
11:12 AM 46.6 °F - 28.6 °F 50% 29.82 in 10.0 mi West 9.2 mph - N/A   Clear
11:33 AM 48.0 °F - 29.1 °F 48% 29.82 in 10.0 mi West 10.4 mph - N/A   Clear
11:52 AM 49.3 °F - 29.7 °F 47% 29.82 in 10.0 mi West 6.9 mph - N/A   Clear
12:13 PM 50.4 °F - 30.2 °F 46% 29.83 in 10.0 mi WNW 8.1 mph - N/A   Clear
12:33 PM 51.1 °F - 30.9 °F 46% 29.82 in 10.0 mi NNW 6.9 mph - N/A   Clear
12:52 PM 52.3 °F - 31.8 °F 46% 29.82 in 10.0 mi NW 8.1 mph - N/A   Clear
1:13 PM 53.2 °F - 32.0 °F 44% 29.82 in 10.0 mi NW 10.4 mph - N/A   Clear
1:33 PM 53.6 °F - 31.8 °F 44% 29.82 in 10.0 mi NW 11.5 mph 17.3 mph N/A   Clear
1:53 PM 54.3 °F - 32.0 °F 43% 29.82 in 10.0 mi North 9.2 mph - N/A   Clear
2:13 PM 54.7 °F - 31.8 °F 42% 29.82 in 10.0 mi NNW 8.1 mph - N/A   Clear
2:33 PM 55.0 °F - 32.0 °F 42% 29.83 in 10.0 mi NNW 6.9 mph - N/A   Clear
2:52 PM 56.3 °F - 31.8 °F 39% 29.83 in 10.0 mi NNW 9.2 mph - N/A   Clear
3:13 PM 56.3 °F - 32.0 °F 40% 29.84 in 10.0 mi NNW 8.1 mph - N/A   Clear
3:32 PM 56.3 °F - 31.6 °F 39% 29.84 in 10.0 mi North 10.4 mph - N/A   Clear
3:52 PM 56.3 °F - 31.3 °F 39% 29.86 in 10.0 mi North 12.7 mph 17.3 mph N/A   Clear
4:13 PM 55.6 °F - 31.6 °F 40% 29.87 in 10.0 mi North 9.2 mph - N/A   Clear
4:33 PM 54.9 °F - 31.5 °F 41% 29.88 in 10.0 mi North 10.4 mph - N/A   Clear
4:52 PM 54.5 °F - 31.1 °F 41% 29.89 in 10.0 mi North 10.4 mph 16.1 mph N/A   Clear
5:13 PM 52.9 °F - 31.6 °F 44% 29.91 in 10.0 mi North 9.2 mph - N/A   Clear
5:33 PM 51.8 °F - 31.1 °F 45% 29.91 in 10.0 mi North 9.2 mph 16.1 mph N/A   Clear
5:52 PM 50.2 °F - 31.1 °F 48% 29.93 in 10.0 mi North 6.9 mph - N/A   Clear
6:13 PM 48.4 °F - 30.2 °F 49% 29.94 in 10.0 mi North 6.9 mph - N/A   Clear
6:33 PM 46.6 °F - 30.0 °F 53% 29.97 in 10.0 mi NNE 11.5 mph 21.9 mph N/A   Clear
6:52 PM 44.8 °F 38.7 °F 29.8 °F 56% 29.98 in 10.0 mi NNE 12.7 mph 18.4 mph N/A   Clear
7:12 PM 43.7 °F 38.6 °F 29.5 °F 57% 30.00 in 10.0 mi NNE 9.2 mph - N/A   Clear
7:33 PM 42.4 °F 36.1 °F 29.8 °F 61% 30.02 in 10.0 mi North 11.5 mph 18.4 mph N/A   Clear
7:53 PM 41.4 °F 34.3 °F 29.1 °F 62% 30.03 in 10.0 mi North 12.7 mph 21.9 mph N/A   Clear
8:12 PM 40.6 °F 33.8 °F 28.8 °F 63% 30.05 in 10.0 mi NNE 11.5 mph 18.4 mph N/A   Clear
8:32 PM 39.9 °F 33.4 °F 28.4 °F 63% 30.06 in 10.0 mi NNE 10.4 mph 17.3 mph N/A   Clear
8:53 PM 39.2 °F 32.0 °F 28.4 °F 65% 30.07 in 10.0 mi NNE 11.5 mph 17.3 mph N/A   Clear
9:13 PM 38.3 °F 32.5 °F 28.4 °F 68% 30.09 in 10.0 mi NNE 8.1 mph - N/A   Clear
9:33 PM 37.0 °F 31.0 °F 28.0 °F 70% 30.10 in 10.0 mi NNE 8.1 mph - N/A   Clear
9:52 PM 36.1 °F 29.9 °F 27.9 °F 72% 30.11 in 10.0 mi NNE 8.1 mph - N/A   Clear
10:13 PM 35.6 °F 30.7 °F 27.5 °F 72% 30.13 in 10.0 mi NNE 5.8 mph - N/A   Clear
10:32 PM 35.6 °F 29.2 °F 27.5 °F 72% 30.13 in 10.0 mi NNE 8.1 mph - N/A   Clear
10:52 PM 35.4 °F 29.0 °F 27.5 °F 73% 30.14 in 10.0 mi NNE 8.1 mph - N/A   Clear
11:13 PM 34.7 °F 28.1 °F 27.5 °F 75% 30.15 in 10.0 mi NNE 8.1 mph - N/A   Clear
11:32 PM 34.3 °F 29.2 °F 27.7 °F 77% 30.16 in 10.0 mi NNE 5.8 mph - N/A   Clear
11:53 PM 34.7 °F 29.6 °F 27.5 °F 75% 30.17 in 10.0 mi NNE 5.8 mph - N/A   Clear